Date String (YYYY-MM-DD hh:mm:ss) UTC,Instrument flags,absolute air pressure of the measurement (hPa),sample flow rate (lpm),inlet stack bypass flow (lpm),air temperature of the measurement (°C),ambient temperature measured by the external sensor (°C),aerosol sample conditioner tube jacket temperature (°C),OPC LED temperature (°C),internal box temperature (°C),relative humidity of the measurement (%),span deviation,mass concentration of particles derived from Lorenz-Mie calculation of OPC scattering (μg/m³),mass concentration of particles derived from Lorenz-Mie calculation of OPC scattering (μg/m³),mass concentration of particles derived from Lorenz-Mie calculation of OPC scattering (μg/m³)
DateTimeUTC,F1_M11,P_M11,Q1_M11,Q2_M11,T1_M11,T2_M11,T3_M11,T4_M11,T5_M11,U1_M11,ZSPAN_M11,X2_M11,X0_M11,X1_M11
2024-05-05 05:00:00,SystemResetWarning,0825.2,5.00,000.00,025.3,024.7,000.0,033.8,027.2,020.3,0000.0,0005.00,0015.16,0003.79
2024-05-05 05:01:00,SystemResetWarning,0825.2,4.99,000.00,025.4,024.7,000.0,033.8,027.2,020.2,0000.0,0005.04,0015.26,0003.80
2024-05-05 05:02:00,SystemResetWarning,0825.2,4.99,000.00,025.4,024.7,000.0,033.8,027.2,020.3,0000.0,0005.03,0015.19,0003.78
2024-05-05 05:03:00,SystemResetWarning,0825.1,5.00,000.00,025.4,024.7,000.0,033.8,027.1,020.5,0000.0,0005.03,0015.59,0003.78
2024-05-05 05:04:00,SystemResetWarning,0825.1,5.02,000.00,025.4,024.7,000.0,033.8,027.2,020.7,0000.0,0005.06,0015.45,0003.79
2024-05-05 05:05:00,SystemResetWarning,0825.1,4.99,000.00,025.4,024.7,000.0,033.8,027.2,020.5,0000.0,0005.11,0016.07,0003.81
2024-05-05 05:06:00,SystemResetWarning,0825.1,4.99,000.00,025.4,024.7,000.0,033.8,027.2,020.2,0000.0,0005.12,0015.50,0003.82
2024-05-05 05:07:00,SystemResetWarning,0825.1,4.99,000.00,025.4,024.7,000.0,033.8,027.2,020.1,0000.0,0005.06,0014.72,0003.81
2024-05-05 05:08:00,SystemResetWarning,0825.0,5.00,000.00,025.4,024.7,000.0,033.8,027.2,020.2,0000.0,0005.02,0014.51,0003.80
2024-05-05 05:09:00,SystemResetWarning,0825.0,5.02,000.00,025.4,024.7,000.0,033.8,027.2,020.0,0000.0,0004.98,0014.53,0003.80
2024-05-05 05:10:00,SystemResetWarning,0825.0,5.00,000.00,025.4,024.7,000.0,033.8,027.2,020.1,0000.0,0004.97,0014.22,0003.79
2024-05-05 05:11:00,SystemResetWarning,0824.9,5.00,000.00,025.4,024.7,000.0,033.8,027.2,020.1,0000.0,0004.95,0014.63,0003.77
2024-05-05 05:12:00,SystemResetWarning,0824.9,4.99,000.00,025.4,024.7,000.0,033.8,027.2,020.0,0000.0,0004.85,0014.47,0003.73
2024-05-05 05:13:00,SystemResetWarning,0825.0,5.00,000.00,025.4,024.8,000.0,033.9,027.3,019.8,0000.0,0004.83,0013.92,0003.71
2024-05-05 05:14:00,SystemResetWarning,0824.9,5.02,000.00,025.4,024.8,000.0,033.9,027.3,019.7,0000.0,0004.79,0013.48,0003.67
2024-05-05 05:15:00,SystemResetWarning,0824.9,4.99,000.00,025.4,024.8,000.0,033.9,027.3,019.7,0000.0,0004.72,0012.71,0003.61
2024-05-05 05:16:00,SystemResetWarning,0824.8,4.99,000.00,025.4,024.8,000.0,033.9,027.3,020.1,0000.0,0004.63,0011.70,0003.56
2024-05-05 05:17:00,SystemResetWarning,0824.9,5.00,000.00,025.5,024.8,000.0,033.9,027.3,020.3,0000.0,0004.54,0011.34,0003.51
2024-05-05 05:18:00,SystemResetWarning,0824.9,5.01,000.00,025.5,024.8,000.0,033.9,027.3,020.9,0000.0,0004.48,0010.94,0003.48
2024-05-05 05:19:00,SystemResetWarning,0824.9,5.00,000.00,025.5,024.8,000.0,033.9,027.3,020.8,0000.0,0004.47,0010.84,0003.46
2024-05-05 05:20:00,SystemResetWarning,0824.9,5.01,000.00,025.5,024.8,000.0,033.9,027.3,020.6,0000.0,0004.50,0011.18,0003.45
2024-05-05 05:21:00,SystemResetWarning,0824.9,5.00,000.00,025.5,024.8,000.0,033.9,027.3,020.6,0000.0,0004.49,0012.16,0003.44
2024-05-05 05:22:00,SystemResetWarning,0824.9,4.99,000.00,025.5,024.8,000.0,033.9,027.3,020.5,0000.0,0004.47,0012.21,0003.43
2024-05-05 05:23:00,SystemResetWarning,0824.9,5.00,000.00,025.5,024.8,000.0,033.9,027.3,020.4,0000.0,0004.44,0012.08,0003.42
2024-05-05 05:24:00,SystemResetWarning,0824.8,5.00,000.00,025.5,024.8,000.0,033.9,027.3,020.2,0000.0,0004.47,0012.63,0003.41
2024-05-05 05:25:00,SystemResetWarning,0824.9,5.00,000.00,025.5,024.8,000.0,033.9,027.3,020.1,0000.0,0004.45,0012.58,0003.39
2024-05-05 05:26:00,SystemResetWarning,0824.9,5.00,000.00,025.5,024.8,000.0,033.9,027.3,020.0,0000.0,0004.43,0012.27,0003.37
2024-05-05 05:27:00,SystemResetWarning,0824.9,5.00,000.00,025.5,024.8,000.0,033.9,027.3,020.3,0000.0,0004.43,0012.39,0003.37
2024-05-05 05:28:00,SystemResetWarning,0824.9,5.00,000.00,025.5,024.8,000.0,033.9,027.3,020.6,0000.0,0004.43,0012.81,0003.35
2024-05-05 05:29:00,SystemResetWarning,0824.9,5.00,000.00,025.5,024.8,000.0,033.9,027.3,020.5,0000.0,0004.40,0012.94,0003.33
2024-05-05 05:30:00,SystemResetWarning,0824.9,4.99,000.00,025.5,024.8,000.0,033.9,027.2,020.5,0000.0,0004.43,0013.64,0003.32
2024-05-05 05:31:00,SystemResetWarning,0824.9,5.00,000.00,025.5,024.7,000.0,033.9,027.2,020.5,0000.0,0004.43,0014.18,0003.31
2024-05-05 05:32:00,SystemResetWarning,0824.9,5.01,000.00,025.5,024.7,000.0,033.9,027.2,020.5,0000.0,0004.41,0013.88,0003.31
2024-05-05 05:33:00,SystemResetWarning,0824.9,5.00,000.00,025.5,024.7,000.0,033.9,027.2,020.4,0000.0,0004.41,0013.98,0003.30
2024-05-05 05:34:00,SystemResetWarning,0824.8,4.99,000.00,025.4,024.7,000.0,033.9,027.2,020.3,0000.0,0004.38,0013.95,0003.29
2024-05-05 05:35:00,SystemResetWarning,0824.8,4.99,000.00,025.4,024.7,000.0,033.9,027.2,020.3,0000.0,0004.39,0014.16,0003.29
2024-05-05 05:36:00,SystemResetWarning,0824.7,5.02,000.00,025.4,024.7,000.0,033.9,027.2,020.3,0000.0,0004.32,0014.46,0003.28
2024-05-05 05:37:00,SystemResetWarning,0824.8,4.99,000.00,025.4,024.7,000.0,033.9,027.2,020.2,0000.0,0004.37,0014.50,0003.28
2024-05-05 05:38:00,SystemResetWarning,0824.7,4.99,000.00,025.4,024.7,000.0,033.9,027.1,020.2,0000.0,0004.33,0014.13,0003.28
2024-05-05 05:39:00,SystemResetWarning,0824.8,5.00,000.00,025.4,024.7,000.0,033.8,027.1,020.2,0000.0,0004.34,0014.53,0003.28
2024-05-05 05:40:00,SystemResetWarning,0824.8,5.01,000.00,025.4,024.7,000.0,033.8,027.1,020.2,0000.0,0004.36,0015.12,0003.29
2024-05-05 05:41:00,SystemResetWarning,0824.8,4.99,000.00,025.4,024.7,000.0,033.8,027.1,020.2,0000.0,0004.32,0014.45,0003.28
2024-05-05 05:42:00,SystemResetWarning,0824.8,4.99,000.00,025.4,024.6,000.0,033.8,027.1,020.1,0000.0,0004.30,0013.75,0003.28
2024-05-05 05:43:00,SystemResetWarning,0824.9,5.00,000.00,025.4,024.6,000.0,033.8,027.1,020.1,0000.0,0004.29,0012.82,0003.27
2024-05-05 05:44:00,SystemResetWarning,0824.9,5.01,000.00,025.3,024.6,000.0,033.8,027.1,020.2,0000.0,0004.30,0012.74,0003.27
2024-05-05 05:45:00,SystemResetWarning,0824.9,5.00,000.00,025.3,024.6,000.0,033.8,027.1,020.2,0000.0,0004.33,0012.42,0003.28
2024-05-05 05:46:00,SystemResetWarning,0824.9,5.00,000.00,025.3,024.6,000.0,033.8,027.0,020.2,0000.0,0004.34,0011.76,0003.29
2024-05-05 05:47:00,SystemResetWarning,0824.9,5.00,000.00,025.3,024.6,000.0,033.8,027.0,020.3,0000.0,0004.41,0011.54,0003.31
2024-05-05 05:48:00,SystemResetWarning,0824.9,5.00,000.00,025.3,024.6,000.0,033.8,027.0,020.6,0000.0,0004.41,0011.96,0003.31
2024-05-05 05:49:00,SystemResetWarning,0824.9,5.02,000.00,025.3,024.6,000.0,033.8,027.0,020.8,0000.0,0004.44,0012.25,0003.30
2024-05-05 05:50:00,SystemResetWarning,0824.9,4.99,000.00,025.3,024.6,000.0,033.8,027.0,020.9,0000.0,0004.40,0011.47,0003.30
2024-05-05 05:51:00,SystemResetWarning,0824.9,4.99,000.00,025.3,024.5,000.0,033.8,027.1,020.9,0000.0,0004.40,0010.75,0003.28
2024-05-05 05:52:00,SystemResetWarning,0824.9,5.00,000.00,025.3,024.5,000.0,033.8,027.0,020.9,0000.0,0004.38,0011.08,0003.27
2024-05-05 05:53:00,SystemResetWarning,0824.9,5.00,000.00,025.3,024.5,000.0,033.8,027.0,021.0,0000.0,0004.35,0010.99,0003.26
2024-05-05 05:54:00,SystemResetWarning,0824.9,5.01,000.00,025.3,024.5,000.0,033.8,027.0,021.0,0000.0,0004.33,0010.74,0003.25
2024-05-05 05:55:00,SystemResetWarning,0824.9,5.00,000.00,025.3,024.5,000.0,033.7,027.0,021.0,0000.0,0004.33,0010.42,0003.24
2024-05-05 05:56:00,SystemResetWarning,0824.8,5.00,000.00,025.3,024.5,000.0,033.7,027.0,020.9,0000.0,0004.30,0010.67,0003.23
2024-05-05 05:57:00,SystemResetWarning,0824.8,5.00,000.00,025.3,024.5,000.0,033.7,027.0,020.9,0000.0,0004.26,0010.77,0003.21
2024-05-05 05:58:00,SystemResetWarning,0824.7,4.99,000.00,025.3,024.5,000.0,033.7,027.0,020.9,0000.0,0004.23,0010.76,0003.19
2024-05-05 05:59:00,SystemResetWarning,0824.7,5.00,000.00,025.2,024.5,000.0,033.7,027.0,020.9,0000.0,0004.22,0010.59,0003.19
